Location: Unspecified
(0.0000°N, 0.0000°E)
Time: 16:37:50
(UTC+00:00)

Vanguard 3 - Pass Details

Date: 17 December 2017
Orbit: 508 x 3264 km, 33.3° (Epoch: 20 July)

Event Time Altitude Azimuth Distance (km) Brightness Sun altitude
Rises 07:24:52 0° 238° (WSW) 6,843 11.6 20.3°
Reaches altitude 10° 07:29:58 10° 240° (WSW) 5,517 11.1 21.4°
Maximum altitude 07:45:09 71° 321° (NW) 1,896 9.2 24.9°
Drops below altitude 10° 07:53:29 10° 45° (NE) 3,194 10.5 26.7°
Sets 07:55:42 0° 48° (NE) 3,891 10.9 27.2°
